Time,TemperatureF,DewpointF,PressureIn,WindDirection,WindDirectionDegrees,WindSpeedMPH,WindSpeedGustMPH,Humidity,HourlyPrecipIn,Conditions,Clouds,dailyrainin,SolarRadiationWatts/m^2,SoftwareType,DateUTC
2013-07-20 00:02:00,84.2,16.5,-100.00,South,169,1.0,11.0,8,0.00,,,0.00,0.0,meteohub,2013-07-20 04:02:00,
2013-07-20 00:07:00,84.4,16.7,-100.00,SSE,150,4.0,11.0,8,0.00,,,0.00,0.0,meteohub,2013-07-20 04:07:00,
2013-07-20 00:12:00,84.4,16.7,-100.00,South,183,2.0,11.0,8,0.00,,,0.00,0.0,meteohub,2013-07-20 04:12:00,
2013-07-20 00:17:00,84.4,16.7,-100.00,South,176,0.0,11.0,8,0.00,,,0.00,0.0,meteohub,2013-07-20 04:17:00,
2013-07-20 00:22:00,84.2,16.5,-100.00,South,184,3.0,11.0,8,0.00,,,0.00,0.0,meteohub,2013-07-20 04:22:00,
2013-07-20 00:27:00,84.4,16.7,-100.00,South,173,0.0,11.0,8,0.00,,,0.00,0.0,meteohub,2013-07-20 04:27:00,
2013-07-20 00:32:00,84.4,16.7,-100.00,SW,215,6.0,10.0,8,0.00,,,0.00,0.0,meteohub,2013-07-20 04:32:00,
2013-07-20 00:37:00,84.6,16.9,-100.00,South,170,0.0,10.0,8,0.00,,,0.00,0.0,meteohub,2013-07-20 04:37:00,
2013-07-20 00:42:00,84.4,16.7,-100.00,SSE,152,0.0,10.0,8,0.00,,,0.00,0.0,meteohub,2013-07-20 04:42:00,
2013-07-20 00:47:00,84.2,16.5,-100.00,SE,136,5.0,10.0,8,0.00,,,0.00,0.0,meteohub,2013-07-20 04:47:00,
2013-07-20 00:52:00,84.4,16.7,-100.00,South,175,8.0,10.0,8,0.00,,,0.00,0.0,meteohub,2013-07-20 04:52:00,
2013-07-20 00:57:00,84.4,16.7,-100.00,South,175,0.0,10.0,8,0.00,,,0.00,0.0,meteohub,2013-07-20 04:57:00,
2013-07-20 01:02:00,84.2,16.5,-100.00,SSE,162,0.0,9.0,8,0.00,,,0.00,0.0,meteohub,2013-07-20 05:02:00,
2013-07-20 01:07:00,84.2,16.5,-100.00,SSE,166,1.0,9.0,8,0.00,,,0.00,0.0,meteohub,2013-07-20 05:07:00,
2013-07-20 01:12:00,84.2,16.5,-100.00,SSE,148,2.0,9.0,8,0.00,,,0.00,0.0,meteohub,2013-07-20 05:12:00,
2013-07-20 01:17:00,84.4,16.7,-100.00,ESE,117,3.0,9.0,8,0.00,,,0.00,0.0,meteohub,2013-07-20 05:17:00,
2013-07-20 01:22:00,84.0,16.3,-100.00,ESE,121,1.0,9.0,8,0.00,,,0.00,0.0,meteohub,2013-07-20 05:22:00,
2013-07-20 01:27:00,84.0,16.3,-100.00,SSE,153,1.0,9.0,8,0.00,,,0.00,0.0,meteohub,2013-07-20 05:27:00,
2013-07-20 01:32:00,84.2,16.5,-100.00,SE,132,5.0,9.0,8,0.00,,,0.00,0.0,meteohub,2013-07-20 05:32:00,
2013-07-20 01:37:00,84.0,16.3,-100.00,SE,144,2.0,9.0,8,0.00,,,0.00,0.0,meteohub,2013-07-20 05:37:00,
2013-07-20 01:42:00,84.0,16.3,-100.00,SSE,157,1.0,9.0,8,0.00,,,0.00,0.0,meteohub,2013-07-20 05:42:00,
2013-07-20 01:47:00,83.8,16.3,-100.00,SSE,159,0.0,9.0,8,0.00,,,0.00,0.0,meteohub,2013-07-20 05:47:00,
2013-07-20 01:52:00,83.8,19.0,-100.00,SSE,157,0.0,9.0,9,0.00,,,0.00,0.0,meteohub,2013-07-20 05:52:00,
2013-07-20 01:57:00,83.7,18.9,-100.00,SSE,157,0.0,6.0,9,0.00,,,0.00,0.0,meteohub,2013-07-20 05:57:00,
2013-07-20 02:02:00,83.7,18.9,-100.00,SSE,165,0.0,6.0,9,0.00,,,0.00,0.0,meteohub,2013-07-20 06:02:00,
2013-07-20 02:07:00,83.7,18.9,-100.00,SSE,148,3.0,6.0,9,0.00,,,0.00,0.0,meteohub,2013-07-20 06:07:00,
2013-07-20 02:12:00,83.5,18.7,-100.00,South,173,4.0,6.0,9,0.00,,,0.00,0.0,meteohub,2013-07-20 06:12:00,
2013-07-20 02:17:00,83.7,18.9,-100.00,SSE,159,3.0,6.0,9,0.00,,,0.00,0.0,meteohub,2013-07-20 06:17:00,
2013-07-20 02:22:00,83.5,18.7,-100.00,South,184,4.0,6.0,9,0.00,,,0.00,0.0,meteohub,2013-07-20 06:22:00,
2013-07-20 02:27:00,83.7,18.9,-100.00,SSE,155,0.0,6.0,9,0.00,,,0.00,0.0,meteohub,2013-07-20 06:27:00,
2013-07-20 02:32:00,83.5,18.7,-100.00,SE,143,1.0,6.0,9,0.00,,,0.00,0.0,meteohub,2013-07-20 06:32:00,
2013-07-20 02:37:00,83.5,18.7,-100.00,SSE,156,0.0,6.0,9,0.00,,,0.00,0.0,meteohub,2013-07-20 06:37:00,
2013-07-20 02:42:00,83.5,18.7,-100.00,South,180,1.0,6.0,9,0.00,,,0.00,0.0,meteohub,2013-07-20 06:42:00,
2013-07-20 02:47:00,83.7,18.9,-100.00,SSE,160,0.0,6.0,9,0.00,,,0.00,0.0,meteohub,2013-07-20 06:47:00,
2013-07-20 02:52:00,83.7,18.9,-100.00,SSE,156,5.0,6.0,9,0.00,,,0.00,0.0,meteohub,2013-07-20 06:52:00,
2013-07-20 02:57:00,83.5,18.7,-100.00,SSE,156,0.0,6.0,9,0.00,,,0.00,0.0,meteohub,2013-07-20 06:57:00,
2013-07-20 03:02:00,83.3,18.5,-100.00,South,169,1.0,6.0,9,0.00,,,0.00,0.0,meteohub,2013-07-20 07:02:00,
2013-07-20 03:07:00,83.5,18.7,-100.00,SSE,149,2.0,6.0,9,0.00,,,0.00,0.0,meteohub,2013-07-20 07:07:00,
2013-07-20 03:12:00,83.5,18.7,-100.00,SSE,166,4.0,6.0,9,0.00,,,0.00,0.0,meteohub,2013-07-20 07:12:00,
2013-07-20 03:17:00,83.5,18.7,-100.00,SSE,148,0.0,6.0,9,0.00,,,0.00,0.0,meteohub,2013-07-20 07:17:00,
2013-07-20 03:22:00,83.3,18.5,-100.00,SSE,149,4.0,6.0,9,0.00,,,0.00,0.0,meteohub,2013-07-20 07:22:00,
2013-07-20 03:27:00,83.3,18.5,-100.00,SSW,194,4.0,6.0,9,0.00,,,0.00,0.0,meteohub,2013-07-20 07:27:00,
2013-07-20 03:32:00,83.5,18.7,-100.00,SE,142,6.0,6.0,9,0.00,,,0.00,0.0,meteohub,2013-07-20 07:32:00,
2013-07-20 03:37:00,83.5,18.7,-100.00,SE,142,4.0,7.0,9,0.00,,,0.00,0.0,meteohub,2013-07-20 07:37:00,
2013-07-20 03:42:00,83.5,18.7,-100.00,SSE,164,2.0,7.0,9,0.00,,,0.00,0.0,meteohub,2013-07-20 07:42:00,
2013-07-20 03:47:00,83.5,18.7,-100.00,SSE,163,0.0,7.0,9,0.00,,,0.00,0.0,meteohub,2013-07-20 07:47:00,
2013-07-20 03:52:00,83.5,18.7,-100.00,SSE,148,4.0,7.0,9,0.00,,,0.00,0.0,meteohub,2013-07-20 07:52:00,
2013-07-20 03:57:00,83.5,18.7,-100.00,South,169,3.0,7.0,9,0.00,,,0.00,0.0,meteohub,2013-07-20 07:57:00,
2013-07-20 04:02:00,83.3,21.0,-100.00,SE,124,0.0,6.0,10,0.00,,,0.00,0.0,meteohub,2013-07-20 08:02:00,
2013-07-20 04:07:00,83.1,20.8,-100.00,SE,146,0.0,6.0,10,0.00,,,0.00,0.0,meteohub,2013-07-20 08:07:00,
2013-07-20 04:12:00,83.1,20.8,-100.00,SE,132,0.0,6.0,10,0.00,,,0.00,0.0,meteohub,2013-07-20 08:12:00,
2013-07-20 04:17:00,83.3,18.5,-100.00,South,178,1.0,6.0,9,0.00,,,0.00,0.0,meteohub,2013-07-20 08:17:00,
2013-07-20 04:22:00,83.1,18.5,-100.00,SE,126,5.0,7.0,9,0.00,,,0.00,0.0,meteohub,2013-07-20 08:22:00,
2013-07-20 04:27:00,83.1,20.8,-100.00,SSE,156,2.0,7.0,10,0.00,,,0.00,0.0,meteohub,2013-07-20 08:27:00,
2013-07-20 04:32:00,83.1,20.8,-100.00,SSE,155,1.0,7.0,10,0.00,,,0.00,0.0,meteohub,2013-07-20 08:32:00,
2013-07-20 04:37:00,83.1,18.5,-100.00,SSE,152,0.0,7.0,9,0.00,,,0.00,0.0,meteohub,2013-07-20 08:37:00,
2013-07-20 04:42:00,83.1,18.5,-100.00,SSE,147,3.0,7.0,9,0.00,,,0.00,0.0,meteohub,2013-07-20 08:42:00,
2013-07-20 04:47:00,83.1,18.5,-100.00,SSE,161,3.0,7.0,9,0.00,,,0.00,0.0,meteohub,2013-07-20 08:47:00,
2013-07-20 04:52:00,83.1,18.5,-100.00,SE,142,1.0,7.0,9,0.00,,,0.00,0.0,meteohub,2013-07-20 08:52:00,
2013-07-20 04:57:00,83.1,20.8,-100.00,SSE,148,1.0,7.0,10,0.00,,,0.00,0.0,meteohub,2013-07-20 08:57:00,
2013-07-20 05:02:00,83.1,18.5,-100.00,SSE,159,0.0,7.0,9,0.00,,,0.00,0.0,meteohub,2013-07-20 09:02:00,
2013-07-20 05:07:00,83.1,18.5,-100.00,SSE,157,4.0,7.0,9,0.00,,,0.00,0.0,meteohub,2013-07-20 09:07:00,
2013-07-20 05:12:00,83.3,18.5,-100.00,South,178,4.0,7.0,9,0.00,,,0.00,0.0,meteohub,2013-07-20 09:12:00,
2013-07-20 05:17:00,83.7,18.9,-100.00,South,184,4.0,6.0,9,0.00,,,0.00,0.0,meteohub,2013-07-20 09:17:00,
2013-07-20 05:22:00,83.5,18.7,-100.00,SSE,148,5.0,6.0,9,0.00,,,0.00,0.0,meteohub,2013-07-20 09:22:00,
2013-07-20 05:27:00,83.5,18.7,-100.00,SE,142,4.0,6.0,9,0.00,,,0.00,0.0,meteohub,2013-07-20 09:27:00,
2013-07-20 05:32:00,83.3,18.5,-100.00,SSE,153,5.0,6.0,9,0.00,,,0.00,0.0,meteohub,2013-07-20 09:32:00,
2013-07-20 05:37:00,83.5,21.2,-100.00,SSW,192,3.0,6.0,10,0.00,,,0.00,0.0,meteohub,2013-07-20 09:37:00,
2013-07-20 05:42:00,83.7,18.9,-100.00,SSW,210,3.0,9.0,9,0.00,,,0.00,0.0,meteohub,2013-07-20 09:42:00,
2013-07-20 05:47:00,83.5,18.7,-100.00,SE,145,2.0,9.0,9,0.00,,,0.00,0.0,meteohub,2013-07-20 09:47:00,
2013-07-20 05:52:00,83.5,18.7,-100.00,SSE,163,2.0,9.0,9,0.00,,,0.00,0.0,meteohub,2013-07-20 09:52:00,
2013-07-20 05:57:00,83.7,18.9,-100.00,SSE,153,5.0,9.0,9,0.00,,,0.00,0.0,meteohub,2013-07-20 09:57:00,
2013-07-20 06:02:00,83.7,18.9,-100.00,SSE,154,2.0,7.0,9,0.00,,,0.00,0.0,meteohub,2013-07-20 10:02:00,
2013-07-20 06:07:00,83.8,19.0,-100.00,SSE,155,2.0,7.0,9,0.00,,,0.00,0.0,meteohub,2013-07-20 10:07:00,
2013-07-20 06:17:00,83.7,18.9,-100.00,SE,142,1.0,7.0,9,0.00,,,0.00,0.0,meteohub,2013-07-20 10:17:00,
2013-07-20 06:22:00,83.8,19.0,-100.00,South,180,5.0,7.0,9,0.00,,,0.00,0.0,meteohub,2013-07-20 10:22:00,
2013-07-20 06:27:00,83.7,18.9,-100.00,SSE,150,0.0,7.0,9,0.00,,,0.00,0.0,meteohub,2013-07-20 10:27:00,
2013-07-20 06:32:00,83.7,18.9,-100.00,SSE,151,4.0,7.0,9,0.00,,,0.00,0.0,meteohub,2013-07-20 10:32:00,
2013-07-20 06:37:00,83.8,19.0,-100.00,SSE,153,1.0,9.0,9,0.00,,,0.00,0.0,meteohub,2013-07-20 10:37:00,
2013-07-20 06:42:00,83.8,19.0,-100.00,SE,142,2.0,9.0,9,0.00,,,0.00,0.0,meteohub,2013-07-20 10:42:00,
2013-07-20 06:47:00,83.7,18.9,-100.00,South,177,4.0,9.0,9,0.00,,,0.00,0.0,meteohub,2013-07-20 10:47:00,
2013-07-20 06:52:00,83.8,19.0,-100.00,South,191,5.0,9.0,9,0.00,,,0.00,0.0,meteohub,2013-07-20 10:52:00,
2013-07-20 06:57:00,84.0,19.0,-100.00,SSE,157,5.0,9.0,9,0.00,,,0.00,9.0,meteohub,2013-07-20 10:57:00,
2013-07-20 07:02:00,83.8,19.0,-100.00,SSE,163,3.0,10.0,9,0.00,,,0.00,12.0,meteohub,2013-07-20 11:02:00,
2013-07-20 07:07:00,83.8,19.0,-100.00,SSE,147,0.0,10.0,9,0.00,,,0.00,16.0,meteohub,2013-07-20 11:07:00,
2013-07-20 07:12:00,83.7,18.9,-100.00,South,178,6.0,10.0,9,0.00,,,0.00,25.0,meteohub,2013-07-20 11:12:00,
2013-07-20 07:17:00,84.0,19.0,-100.00,SSE,161,2.0,10.0,9,0.00,,,0.00,32.0,meteohub,2013-07-20 11:17:00,
2013-07-20 07:22:00,84.0,19.0,-100.00,South,172,2.0,10.0,9,0.00,,,0.00,35.0,meteohub,2013-07-20 11:22:00,
2013-07-20 07:27:00,84.2,19.2,-100.00,SE,142,2.0,10.0,9,0.00,,,0.00,40.0,meteohub,2013-07-20 11:27:00,
2013-07-20 07:32:00,84.0,19.0,-100.00,SE,140,1.0,10.0,9,0.00,,,0.00,44.0,meteohub,2013-07-20 11:32:00,
2013-07-20 07:37:00,84.0,19.0,-100.00,SE,130,7.0,13.0,9,0.00,,,0.00,47.0,meteohub,2013-07-20 11:37:00,
2013-07-20 07:42:00,84.4,19.4,-100.00,SSE,161,4.0,13.0,9,0.00,,,0.00,56.0,meteohub,2013-07-20 11:42:00,
2013-07-20 07:47:00,84.4,19.4,-100.00,SE,146,2.0,13.0,9,0.00,,,0.00,62.0,meteohub,2013-07-20 11:47:00,
2013-07-20 07:52:00,84.4,19.4,-100.00,South,182,1.0,13.0,9,0.00,,,0.00,65.0,meteohub,2013-07-20 11:52:00,
2013-07-20 07:57:00,84.2,19.2,-100.00,SE,141,7.0,13.0,9,0.00,,,0.00,69.0,meteohub,2013-07-20 11:57:00,
2013-07-20 08:02:00,84.4,19.4,-100.00,South,178,3.0,10.0,9,0.00,,,0.00,81.0,meteohub,2013-07-20 12:02:00,
2013-07-20 08:07:00,84.6,16.9,-100.00,SSE,161,0.0,10.0,8,0.00,,,0.00,90.0,meteohub,2013-07-20 12:07:00,
2013-07-20 08:12:00,84.6,19.6,-100.00,SSE,165,3.0,10.0,9,0.00,,,0.00,84.0,meteohub,2013-07-20 12:12:00,
2013-07-20 08:17:00,84.6,19.6,-100.00,SSW,200,3.0,10.0,9,0.00,,,0.00,95.0,meteohub,2013-07-20 12:17:00,
2013-07-20 08:22:00,84.7,19.6,-100.00,South,174,2.0,6.0,9,0.00,,,0.00,134.0,meteohub,2013-07-20 12:22:00,
2013-07-20 08:27:00,84.7,16.9,-100.00,South,171,3.0,6.0,8,0.00,,,0.00,158.0,meteohub,2013-07-20 12:27:00,
2013-07-20 08:32:00,84.9,17.1,-100.00,SSE,149,0.0,6.0,8,0.00,,,0.00,148.0,meteohub,2013-07-20 12:32:00,
2013-07-20 08:37:00,85.1,17.2,-100.00,SE,144,0.0,6.0,8,0.00,,,0.00,322.0,meteohub,2013-07-20 12:37:00,
2013-07-20 08:42:00,85.5,17.4,-100.00,South,173,4.0,6.0,8,0.00,,,0.00,383.0,meteohub,2013-07-20 12:42:00,
2013-07-20 08:47:00,86.0,17.8,-100.00,SSE,163,4.0,6.0,8,0.00,,,0.00,410.0,meteohub,2013-07-20 12:47:00,
2013-07-20 08:52:00,86.5,18.3,-100.00,SSE,167,0.0,5.0,8,0.00,,,0.00,422.0,meteohub,2013-07-20 12:52:00,
2013-07-20 08:57:00,87.1,18.7,-100.00,SSE,157,1.0,5.0,8,0.00,,,0.00,459.0,meteohub,2013-07-20 12:57:00,
2013-07-20 09:02:00,87.3,18.9,-100.00,SSE,167,6.0,6.0,8,0.00,,,0.00,424.0,meteohub,2013-07-20 13:02:00,
2013-07-20 09:07:00,87.4,21.7,-100.00,South,175,5.0,5.0,9,0.00,,,0.00,322.0,meteohub,2013-07-20 13:07:00,
2013-07-20 09:12:00,87.6,21.7,-100.00,SSW,196,4.0,5.0,9,0.00,,,0.00,345.0,meteohub,2013-07-20 13:12:00,
2013-07-20 09:17:00,87.8,26.8,-100.00,SSW,192,7.0,11.0,11,0.00,,,0.00,422.0,meteohub,2013-07-20 13:17:00,
2013-07-20 09:22:00,87.6,24.3,-100.00,SE,145,4.0,11.0,10,0.00,,,0.00,661.0,meteohub,2013-07-20 13:22:00,
2013-07-20 09:27:00,87.6,26.6,-100.00,SE,144,4.0,11.0,11,0.00,,,0.00,311.0,meteohub,2013-07-20 13:27:00,
2013-07-20 09:32:00,87.4,24.3,-100.00,SSW,203,5.0,11.0,10,0.00,,,0.00,835.0,meteohub,2013-07-20 13:32:00,
2013-07-20 09:37:00,88.2,24.8,-100.00,SSW,192,4.0,11.0,10,0.00,,,0.00,308.0,meteohub,2013-07-20 13:37:00,
2013-07-20 09:42:00,88.0,24.6,-100.00,South,173,0.0,14.0,10,0.00,,,0.00,269.0,meteohub,2013-07-20 13:42:00,
2013-07-20 09:47:00,88.0,22.1,-100.00,SSE,151,4.0,14.0,9,0.00,,,0.00,415.0,meteohub,2013-07-20 13:47:00,
2013-07-20 09:52:00,87.8,26.8,-100.00,South,175,5.0,14.0,11,0.00,,,0.00,274.0,meteohub,2013-07-20 13:52:00,
2013-07-20 09:57:00,87.6,24.3,-100.00,SSE,151,0.0,14.0,10,0.00,,,0.00,213.0,meteohub,2013-07-20 13:57:00,
2013-07-20 10:02:00,87.6,24.3,-100.00,SSE,157,3.0,16.0,10,0.00,,,0.00,265.0,meteohub,2013-07-20 14:02:00,
2013-07-20 10:07:00,87.4,21.7,-100.00,SSE,165,3.0,16.0,9,0.00,,,0.00,276.0,meteohub,2013-07-20 14:07:00,
2013-07-20 10:12:00,87.3,21.6,-100.00,SSW,195,7.0,16.0,9,0.00,,,0.00,297.0,meteohub,2013-07-20 14:12:00,
2013-07-20 10:17:00,87.3,21.6,-100.00,SSW,205,5.0,12.0,9,0.00,,,0.00,221.0,meteohub,2013-07-20 14:17:00,
2013-07-20 10:22:00,87.4,21.7,-100.00,SE,126,4.0,12.0,9,0.00,,,0.00,276.0,meteohub,2013-07-20 14:22:00,
2013-07-20 10:27:00,87.4,21.7,-100.00,SSE,154,5.0,12.0,9,0.00,,,0.00,329.0,meteohub,2013-07-20 14:27:00,
2013-07-20 10:32:00,87.3,21.6,-100.00,SE,129,7.0,12.0,9,0.00,,,0.00,374.0,meteohub,2013-07-20 14:32:00,
2013-07-20 10:37:00,87.8,21.9,-100.00,SSE,148,10.0,12.0,9,0.00,,,0.00,436.0,meteohub,2013-07-20 14:37:00,
2013-07-20 10:42:00,88.0,24.6,-100.00,East,97,6.0,12.0,10,0.00,,,0.00,494.0,meteohub,2013-07-20 14:42:00,
2013-07-20 10:47:00,88.2,22.3,-100.00,SE,140,7.0,12.0,9,0.00,,,0.00,608.0,meteohub,2013-07-20 14:47:00,
2013-07-20 10:52:00,88.2,24.8,-100.00,SSW,196,5.0,16.0,10,0.00,,,0.00,462.0,meteohub,2013-07-20 14:52:00,
2013-07-20 10:57:00,88.2,31.1,-100.00,SSW,199,8.0,16.0,13,0.00,,,0.00,452.0,meteohub,2013-07-20 14:57:00,
2013-07-20 11:02:00,87.6,32.5,-100.00,SSE,155,3.0,16.0,14,0.00,,,0.00,482.0,meteohub,2013-07-20 15:02:00,
2013-07-20 11:07:00,88.0,28.9,-100.00,South,184,4.0,16.0,12,0.00,,,0.00,591.0,meteohub,2013-07-20 15:07:00,
2013-07-20 11:12:00,88.0,30.9,-100.00,South,182,11.0,16.0,13,0.00,,,0.00,1093.0,meteohub,2013-07-20 15:12:00,
2013-07-20 11:17:00,87.4,32.4,-100.00,SW,216,10.0,16.0,14,0.00,,,0.00,652.0,meteohub,2013-07-20 15:17:00,
2013-07-20 11:22:00,87.4,38.7,-100.00,SE,144,10.0,16.0,18,0.00,,,0.00,802.0,meteohub,2013-07-20 15:22:00,
2013-07-20 11:27:00,87.4,38.7,-100.00,South,179,7.0,16.0,18,0.00,,,0.00,643.0,meteohub,2013-07-20 15:27:00,
2013-07-20 11:32:00,87.4,35.8,-100.00,SSW,200,4.0,21.0,16,0.00,,,0.00,1081.0,meteohub,2013-07-20 15:32:00,
2013-07-20 11:37:00,87.4,45.1,-100.00,SSE,161,6.0,21.0,23,0.00,,,0.00,633.0,meteohub,2013-07-20 15:37:00,
2013-07-20 11:42:00,87.3,49.3,-100.00,SSE,153,2.0,21.0,27,0.00,,,0.00,833.0,meteohub,2013-07-20 15:42:00,
2013-07-20 11:47:00,87.1,48.0,-100.00,South,187,3.0,21.0,26,0.00,,,0.00,707.0,meteohub,2013-07-20 15:47:00,
2013-07-20 11:52:00,87.1,50.0,-100.00,SSE,153,9.0,16.0,28,0.00,,,0.00,578.0,meteohub,2013-07-20 15:52:00,
2013-07-20 11:57:00,87.1,48.0,-100.00,SSW,202,15.0,16.0,26,0.00,,,0.00,494.0,meteohub,2013-07-20 15:57:00,
2013-07-20 12:02:00,86.5,43.2,-100.00,SSW,192,9.0,16.0,22,0.00,,,0.00,483.0,meteohub,2013-07-20 16:02:00,
2013-07-20 12:07:00,86.2,41.7,-100.00,SSE,163,15.0,16.0,21,0.00,,,0.00,473.0,meteohub,2013-07-20 16:07:00,
2013-07-20 12:12:00,86.5,40.6,-100.00,SSW,203,3.0,16.0,20,0.00,,,0.00,548.0,meteohub,2013-07-20 16:12:00,
2013-07-20 12:17:00,87.1,38.5,-100.00,SSW,196,9.0,20.0,18,0.00,,,0.00,645.0,meteohub,2013-07-20 16:17:00,
2013-07-20 12:22:00,87.6,34.3,-100.00,SSW,196,8.0,20.0,15,0.00,,,0.00,636.0,meteohub,2013-07-20 16:22:00,
2013-07-20 12:27:00,87.6,37.4,-100.00,South,186,6.0,20.0,17,0.00,,,0.00,582.0,meteohub,2013-07-20 16:27:00,
2013-07-20 12:32:00,88.2,36.3,-100.00,South,182,12.0,20.0,16,0.00,,,0.00,550.0,meteohub,2013-07-20 16:32:00,
2013-07-20 12:37:00,88.2,36.3,-100.00,SSW,201,7.0,14.0,16,0.00,,,0.00,475.0,meteohub,2013-07-20 16:37:00,
2013-07-20 12:42:00,88.0,30.9,-100.00,SSE,167,9.0,14.0,13,0.00,,,0.00,454.0,meteohub,2013-07-20 16:42:00,
2013-07-20 12:47:00,87.8,30.9,-100.00,SSE,159,14.0,14.0,13,0.00,,,0.00,431.0,meteohub,2013-07-20 16:47:00,
2013-07-20 12:52:00,88.2,31.1,-100.00,South,178,4.0,14.0,13,0.00,,,0.00,504.0,meteohub,2013-07-20 16:52:00,
2013-07-20 12:57:00,88.3,37.9,-100.00,SSW,198,5.0,17.0,17,0.00,,,0.00,591.0,meteohub,2013-07-20 16:57:00,
2013-07-20 13:02:00,88.5,42.3,-100.00,SW,223,11.0,17.0,20,0.00,,,0.00,603.0,meteohub,2013-07-20 17:02:00,
2013-07-20 13:07:00,88.7,47.3,-100.00,SW,218,11.0,17.0,24,0.00,,,0.00,427.0,meteohub,2013-07-20 17:07:00,
2013-07-20 13:12:00,88.3,39.4,-100.00,South,180,4.0,17.0,18,0.00,,,0.00,397.0,meteohub,2013-07-20 17:12:00,
2013-07-20 13:17:00,87.8,37.6,-100.00,SSE,148,9.0,21.0,17,0.00,,,0.00,432.0,meteohub,2013-07-20 17:17:00,
2013-07-20 13:22:00,87.6,36.0,-100.00,South,186,12.0,21.0,16,0.00,,,0.00,381.0,meteohub,2013-07-20 17:22:00,
2013-07-20 13:27:00,87.4,34.2,-100.00,South,177,14.0,21.0,15,0.00,,,0.00,355.0,meteohub,2013-07-20 17:27:00,
2013-07-20 13:32:00,87.4,34.2,-100.00,SSW,205,13.0,19.0,15,0.00,,,0.00,404.0,meteohub,2013-07-20 17:32:00,
2013-07-20 13:37:00,87.3,34.0,-100.00,SSW,196,9.0,19.0,15,0.00,,,0.00,422.0,meteohub,2013-07-20 17:37:00,
2013-07-20 13:42:00,87.1,33.8,-100.00,South,190,10.0,19.0,15,0.00,,,0.00,420.0,meteohub,2013-07-20 17:42:00,
2013-07-20 13:47:00,87.1,32.2,-100.00,SSW,192,10.0,19.0,14,0.00,,,0.00,438.0,meteohub,2013-07-20 17:47:00,
2013-07-20 13:52:00,87.4,32.4,-100.00,SSW,210,12.0,23.0,14,0.00,,,0.00,478.0,meteohub,2013-07-20 17:52:00,
2013-07-20 13:57:00,87.6,34.3,-100.00,SSW,210,11.0,23.0,15,0.00,,,0.00,494.0,meteohub,2013-07-20 17:57:00,
2013-07-20 14:02:00,87.4,35.8,-100.00,SSE,154,7.0,23.0,16,0.00,,,0.00,420.0,meteohub,2013-07-20 18:02:00,
2013-07-20 14:07:00,87.3,35.6,-100.00,SW,215,14.0,23.0,16,0.00,,,0.00,406.0,meteohub,2013-07-20 18:07:00,
2013-07-20 14:12:00,87.3,34.0,-100.00,South,179,5.0,23.0,15,0.00,,,0.00,406.0,meteohub,2013-07-20 18:12:00,
2013-07-20 14:17:00,87.4,32.4,-100.00,SSW,198,8.0,22.0,14,0.00,,,0.00,373.0,meteohub,2013-07-20 18:17:00,
2013-07-20 14:22:00,87.4,30.6,-100.00,South,184,6.0,22.0,13,0.00,,,0.00,399.0,meteohub,2013-07-20 18:22:00,
2013-07-20 14:27:00,87.4,30.6,-100.00,SSW,193,6.0,22.0,13,0.00,,,0.00,369.0,meteohub,2013-07-20 18:27:00,
2013-07-20 14:37:00,87.1,30.2,-100.00,SSE,164,12.0,21.0,13,0.00,,,0.00,403.0,meteohub,2013-07-20 18:37:00,
2013-07-20 14:47:00,87.4,30.6,-100.00,South,169,5.0,21.0,13,0.00,,,0.00,475.0,meteohub,2013-07-20 18:47:00,
2013-07-20 14:52:00,87.4,28.6,-100.00,SSW,211,6.0,19.0,12,0.00,,,0.00,499.0,meteohub,2013-07-20 18:52:00,
2013-07-20 15:02:00,88.0,36.1,-100.00,SSE,167,8.0,19.0,16,0.00,,,0.00,404.0,meteohub,2013-07-20 19:02:00,
2013-07-20 15:07:00,87.6,36.0,-100.00,South,180,6.0,19.0,16,0.00,,,0.00,404.0,meteohub,2013-07-20 19:07:00,
2013-07-20 15:12:00,87.4,32.4,-100.00,South,180,10.0,19.0,14,0.00,,,0.00,346.0,meteohub,2013-07-20 19:12:00,
2013-07-20 15:17:00,87.3,28.4,-100.00,SSW,209,10.0,17.0,12,0.00,,,0.00,309.0,meteohub,2013-07-20 19:17:00,
2013-07-20 15:22:00,87.4,28.6,-100.00,SSE,150,11.0,17.0,12,0.00,,,0.00,253.0,meteohub,2013-07-20 19:22:00,
2013-07-20 15:27:00,87.1,28.4,-100.00,South,188,13.0,17.0,12,0.00,,,0.00,244.0,meteohub,2013-07-20 19:27:00,
2013-07-20 15:32:00,87.1,26.2,-100.00,South,175,5.0,17.0,11,0.00,,,0.00,253.0,meteohub,2013-07-20 19:32:00,
2013-07-20 15:37:00,87.1,26.2,-100.00,SE,138,7.0,17.0,11,0.00,,,0.00,258.0,meteohub,2013-07-20 19:37:00,
2013-07-20 15:42:00,87.1,23.9,-100.00,SSE,149,4.0,17.0,10,0.00,,,0.00,241.0,meteohub,2013-07-20 19:42:00,
2013-07-20 15:47:00,87.3,24.1,-100.00,SSW,199,6.0,17.0,10,0.00,,,0.00,244.0,meteohub,2013-07-20 19:47:00,
2013-07-20 15:52:00,87.1,26.2,-100.00,SSW,203,11.0,12.0,11,0.00,,,0.00,225.0,meteohub,2013-07-20 19:52:00,
2013-07-20 16:02:00,86.7,23.7,-100.00,SSE,162,7.0,12.0,10,0.00,,,0.00,197.0,meteohub,2013-07-20 20:02:00,
2013-07-20 16:07:00,87.1,23.9,-100.00,SSW,196,6.0,12.0,10,0.00,,,0.00,199.0,meteohub,2013-07-20 20:07:00,
2013-07-20 16:12:00,86.9,23.7,-100.00,South,191,4.0,12.0,10,0.00,,,0.00,186.0,meteohub,2013-07-20 20:12:00,
2013-07-20 16:17:00,87.1,23.9,-100.00,SSW,192,6.0,14.0,10,0.00,,,0.00,174.0,meteohub,2013-07-20 20:17:00,
2013-07-20 16:22:00,86.7,23.7,-100.00,South,172,1.0,14.0,10,0.00,,,0.00,178.0,meteohub,2013-07-20 20:22:00,
2013-07-20 16:27:00,86.7,23.7,-100.00,SW,218,10.0,14.0,10,0.00,,,0.00,139.0,meteohub,2013-07-20 20:27:00,
2013-07-20 16:32:00,86.7,21.2,-100.00,South,188,3.0,15.0,9,0.00,,,0.00,113.0,meteohub,2013-07-20 20:32:00,
2013-07-20 16:37:00,87.1,23.9,-100.00,SSW,197,9.0,15.0,10,0.00,,,0.00,118.0,meteohub,2013-07-20 20:37:00,
2013-07-20 16:42:00,86.7,23.7,-100.00,SSW,205,6.0,15.0,10,0.00,,,0.00,84.0,meteohub,2013-07-20 20:42:00,
2013-07-20 16:47:00,86.4,20.8,-100.00,SSW,192,0.0,15.0,9,0.00,,,0.00,90.0,meteohub,2013-07-20 20:47:00,
2013-07-20 16:52:00,86.4,20.8,-100.00,South,180,0.0,14.0,9,0.00,,,0.00,93.0,meteohub,2013-07-20 20:52:00,
2013-07-20 16:57:00,86.2,23.2,-100.00,SSW,198,12.0,14.0,10,0.00,,,0.00,120.0,meteohub,2013-07-20 20:57:00,
2013-07-20 17:02:00,85.6,27.1,-100.00,SSE,152,2.0,14.0,12,0.00,,,0.00,118.0,meteohub,2013-07-20 21:02:00,
2013-07-20 17:07:00,85.5,28.9,-100.00,South,183,5.0,14.0,13,0.00,,,0.00,113.0,meteohub,2013-07-20 21:07:00,
2013-07-20 17:12:00,84.9,35.2,-100.00,South,170,7.0,14.0,17,0.00,,,0.00,104.0,meteohub,2013-07-20 21:12:00,
2013-07-20 17:22:00,84.7,42.8,-100.00,SW,214,7.0,14.0,23,0.00,,,0.00,93.0,meteohub,2013-07-20 21:22:00,
2013-07-20 17:27:00,84.7,42.8,-100.00,SSE,168,3.0,14.0,23,0.00,,,0.00,88.0,meteohub,2013-07-20 21:27:00,
2013-07-20 17:37:00,84.6,42.6,-100.00,South,176,4.0,10.0,23,0.00,,,0.00,70.0,meteohub,2013-07-20 21:37:00,
2013-07-20 17:42:00,84.7,37.9,-100.00,South,172,2.0,10.0,19,0.00,,,0.00,67.0,meteohub,2013-07-20 21:42:00,
2013-07-20 17:52:00,84.6,34.9,-100.00,South,185,4.0,13.0,17,0.00,,,0.00,63.0,meteohub,2013-07-20 21:52:00,
2013-07-20 17:57:00,84.2,34.7,-100.00,SSW,196,9.0,13.0,17,0.00,,,0.00,65.0,meteohub,2013-07-20 21:57:00,
2013-07-20 18:07:00,84.4,26.2,-100.00,South,190,4.0,13.0,12,0.00,,,0.00,65.0,meteohub,2013-07-20 22:07:00,
2013-07-20 18:12:00,84.4,26.2,-100.00,South,185,4.0,13.0,12,0.00,,,0.00,65.0,meteohub,2013-07-20 22:12:00,
2013-07-20 18:22:00,84.7,22.1,-100.00,South,178,2.0,12.0,10,0.00,,,0.00,60.0,meteohub,2013-07-20 22:22:00,
2013-07-20 18:27:00,84.7,19.6,-100.00,South,184,5.0,12.0,9,0.00,,,0.00,54.0,meteohub,2013-07-20 22:27:00,
2013-07-20 18:37:00,84.9,19.8,-100.00,South,173,5.0,11.0,9,0.00,,,0.00,49.0,meteohub,2013-07-20 22:37:00,
2013-07-20 18:42:00,84.9,19.8,-100.00,SSW,199,10.0,11.0,9,0.00,,,0.00,46.0,meteohub,2013-07-20 22:42:00,
2013-07-20 18:47:00,84.9,19.8,-100.00,SSW,202,11.0,11.0,9,0.00,,,0.00,40.0,meteohub,2013-07-20 22:47:00,
2013-07-20 18:52:00,84.9,19.8,-100.00,SSW,198,6.0,11.0,9,0.00,,,0.00,35.0,meteohub,2013-07-20 22:52:00,
2013-07-20 18:57:00,84.7,19.6,-100.00,South,188,6.0,16.0,9,0.00,,,0.00,32.0,meteohub,2013-07-20 22:57:00,
2013-07-20 19:02:00,84.9,19.8,-100.00,South,188,4.0,16.0,9,0.00,,,0.00,30.0,meteohub,2013-07-20 23:02:00,
2013-07-20 19:07:00,84.9,19.8,-100.00,South,180,5.0,16.0,9,0.00,,,0.00,28.0,meteohub,2013-07-20 23:07:00,
2013-07-20 19:12:00,84.7,19.6,-100.00,ESE,105,9.0,16.0,9,0.00,,,0.00,26.0,meteohub,2013-07-20 23:12:00,
2013-07-20 19:17:00,84.7,19.6,-100.00,SSW,202,7.0,15.0,9,0.00,,,0.00,23.0,meteohub,2013-07-20 23:17:00,
2013-07-20 19:22:00,84.7,19.6,-100.00,SSW,200,3.0,15.0,9,0.00,,,0.00,21.0,meteohub,2013-07-20 23:22:00,
2013-07-20 19:27:00,84.7,22.1,-100.00,SSW,200,6.0,15.0,10,0.00,,,0.00,18.0,meteohub,2013-07-20 23:27:00,
2013-07-20 19:32:00,84.6,21.9,-100.00,SSW,206,3.0,11.0,10,0.00,,,0.00,16.0,meteohub,2013-07-20 23:32:00,
2013-07-20 19:42:00,84.4,19.4,-100.00,SSW,198,4.0,11.0,9,0.00,,,0.00,11.0,meteohub,2013-07-20 23:42:00,
2013-07-20 19:47:00,84.6,19.6,-100.00,SW,222,2.0,11.0,9,0.00,,,0.00,7.0,meteohub,2013-07-20 23:47:00,
2013-07-20 19:52:00,84.4,19.4,-100.00,SSW,213,3.0,11.0,9,0.00,,,0.00,5.0,meteohub,2013-07-20 23:52:00,
2013-07-20 20:02:00,84.0,19.0,-100.00,SSW,211,0.0,11.0,9,0.00,,,0.00,0.0,meteohub,2013-07-21 00:02:00,
2013-07-20 20:07:00,83.8,23.7,-100.00,SSE,156,1.0,11.0,11,0.00,,,0.00,0.0,meteohub,2013-07-21 00:07:00,
2013-07-20 20:17:00,83.5,25.5,-100.00,SSW,211,1.0,10.0,12,0.00,,,0.00,0.0,meteohub,2013-07-21 00:17:00,
2013-07-20 20:22:00,83.1,25.3,-100.00,SSW,210,1.0,10.0,12,0.00,,,0.00,0.0,meteohub,2013-07-21 00:22:00,
2013-07-20 20:27:00,82.9,25.2,-100.00,SSW,211,1.0,10.0,12,0.00,,,0.00,0.0,meteohub,2013-07-21 00:27:00,
2013-07-20 20:32:00,82.8,22.8,-100.00,SSW,210,3.0,6.0,11,0.00,,,0.00,0.0,meteohub,2013-07-21 00:32:00,
2013-07-20 20:37:00,82.6,22.8,-100.00,SSW,210,0.0,6.0,11,0.00,,,0.00,0.0,meteohub,2013-07-21 00:37:00,
2013-07-20 20:42:00,82.2,22.5,-100.00,SSW,211,5.0,6.0,11,0.00,,,0.00,0.0,meteohub,2013-07-21 00:42:00,
2013-07-20 20:47:00,82.0,24.4,-100.00,SSW,207,0.0,6.0,12,0.00,,,0.00,0.0,meteohub,2013-07-21 00:47:00,
2013-07-20 20:52:00,82.0,24.4,-100.00,SSW,207,0.0,6.0,12,0.00,,,0.00,0.0,meteohub,2013-07-21 00:52:00,
2013-07-20 20:57:00,81.9,26.2,-100.00,SSW,208,0.0,6.0,13,0.00,,,0.00,0.0,meteohub,2013-07-21 00:57:00,
2013-07-20 21:02:00,81.3,33.8,-100.00,SSW,209,0.0,6.0,18,0.00,,,0.00,0.0,meteohub,2013-07-21 01:02:00,
2013-07-20 21:07:00,81.3,33.8,-100.00,SSW,207,0.0,6.0,18,0.00,,,0.00,0.0,meteohub,2013-07-21 01:07:00,
2013-07-20 21:12:00,81.3,32.4,-100.00,SSW,208,0.0,6.0,17,0.00,,,0.00,0.0,meteohub,2013-07-21 01:12:00,
2013-07-20 21:17:00,81.5,30.9,-100.00,SSW,208,0.0,6.0,16,0.00,,,0.00,0.0,meteohub,2013-07-21 01:17:00,
2013-07-20 21:22:00,81.5,29.5,-100.00,SSW,209,0.0,6.0,15,0.00,,,0.00,0.0,meteohub,2013-07-21 01:22:00,
2013-07-20 21:27:00,81.3,27.5,-100.00,SSW,209,0.0,6.0,14,0.00,,,0.00,0.0,meteohub,2013-07-21 01:27:00,
2013-07-20 21:37:00,81.3,25.7,-100.00,SSW,209,0.0,1.0,13,0.00,,,0.00,0.0,meteohub,2013-07-21 01:37:00,
2013-07-20 21:42:00,81.3,25.7,-100.00,SSW,209,0.0,1.0,13,0.00,,,0.00,0.0,meteohub,2013-07-21 01:42:00,
2013-07-20 21:47:00,81.3,23.9,-100.00,SSW,209,0.0,1.0,12,0.00,,,0.00,0.0,meteohub,2013-07-21 01:47:00,
2013-07-20 21:52:00,81.1,23.7,-100.00,SSW,209,0.0,3.0,12,0.00,,,0.00,0.0,meteohub,2013-07-21 01:52:00,
2013-07-20 21:57:00,81.1,23.7,-100.00,SSW,209,0.0,3.0,12,0.00,,,0.00,0.0,meteohub,2013-07-21 01:57:00,
2013-07-20 22:02:00,81.1,23.7,-100.00,SSW,209,0.0,3.0,12,0.00,,,0.00,0.0,meteohub,2013-07-21 02:02:00,
2013-07-20 22:12:00,81.1,21.6,-100.00,SSW,209,0.0,3.0,11,0.00,,,0.00,0.0,meteohub,2013-07-21 02:12:00,
2013-07-20 22:17:00,81.1,21.6,-100.00,SSW,209,0.0,0.0,11,0.00,,,0.00,0.0,meteohub,2013-07-21 02:17:00,
2013-07-20 22:22:00,81.0,21.6,-100.00,SSW,209,0.0,0.0,11,0.00,,,0.00,0.0,meteohub,2013-07-21 02:22:00,
2013-07-20 22:32:00,81.0,19.2,-100.00,SSW,209,0.0,1.0,10,0.00,,,0.00,0.0,meteohub,2013-07-21 02:32:00,
2013-07-20 22:37:00,80.8,19.2,-100.00,SSW,209,0.0,1.0,10,0.00,,,0.00,0.0,meteohub,2013-07-21 02:37:00,
2013-07-20 22:42:00,80.8,19.2,-100.00,SSW,209,0.0,1.0,10,0.00,,,0.00,0.0,meteohub,2013-07-21 02:42:00,
2013-07-20 22:52:00,80.8,19.2,-100.00,SSW,209,0.0,1.0,10,0.00,,,0.00,0.0,meteohub,2013-07-21 02:52:00,
2013-07-20 22:57:00,80.6,19.0,-100.00,SW,223,1.0,1.0,10,0.00,,,0.00,0.0,meteohub,2013-07-21 02:57:00,
2013-07-20 23:02:00,80.4,18.9,-100.00,SW,223,0.0,1.0,10,0.00,,,0.00,0.0,meteohub,2013-07-21 03:02:00,
2013-07-20 23:07:00,80.2,18.7,-100.00,SW,223,0.0,1.0,10,0.00,,,0.00,0.0,meteohub,2013-07-21 03:07:00,
2013-07-20 23:12:00,80.1,18.5,-100.00,SW,223,0.0,1.0,10,0.00,,,0.00,0.0,meteohub,2013-07-21 03:12:00,
2013-07-20 23:17:00,79.9,20.7,-100.00,SW,223,0.0,4.0,11,0.00,,,0.00,0.0,meteohub,2013-07-21 03:17:00,
2013-07-20 23:22:00,79.5,20.5,-100.00,SW,223,0.0,4.0,11,0.00,,,0.00,0.0,meteohub,2013-07-21 03:22:00,
2013-07-20 23:32:00,79.5,20.5,-100.00,SW,223,0.0,4.0,11,0.00,,,0.00,0.0,meteohub,2013-07-21 03:32:00,
2013-07-20 23:37:00,79.3,20.3,-100.00,SW,223,0.0,4.0,11,0.00,,,0.00,0.0,meteohub,2013-07-21 03:37:00,
2013-07-20 23:42:00,79.3,22.3,-100.00,SW,223,0.0,0.0,12,0.00,,,0.00,0.0,meteohub,2013-07-21 03:42:00,
2013-07-20 23:52:00,79.2,22.1,-100.00,SW,223,0.0,0.0,12,0.00,,,0.00,0.0,meteohub,2013-07-21 03:52:00,
2013-07-20 23:57:00,79.2,22.1,-100.00,SW,223,0.0,0.0,12,0.00,,,0.00,0.0,meteohub,2013-07-21 03:57:00,